Simultaneous Nadir Overpasses (SNOs) Predictions

Prediction of SNOs between GOES-17 and METOP-B Satellite Orbit:

Table of predicted SNOs for the next 14.0 days since TLE Epoch: 8/7/2020
Index Date Time (GOES-17) GOES-17 Lat,Lon METOP-B Lat,Lon Distance(km) Time Diff (sec)
1 08/08/2020 06:47:31 0.00,-137.16 -0.42,-138.94 203.33 80
2 08/09/2020 06:24:12 0.00,-137.16 0.72,-133.95 365.71 80
3 08/10/2020 18:43:03 -0.00,-137.16 0.28,-138.51 153.45 80
4 08/11/2020 18:25:03 0.00,-137.16 -0.80,-133.51 415.16 80
5 08/13/2020 06:41:22 0.00,-137.13 -0.23,-138.10 110.97 80
6 08/14/2020 06:23:23 0.00,-137.12 0.91,-133.11 457.05 80
7 08/15/2020 18:39:33 -0.00,-137.11 0.15,-137.67 63.82 80
8 08/18/2020 06:37:53 0.00,-137.06 -0.03,-137.27 23.87 80
9 08/20/2020 18:38:43 -0.00,-137.02 -0.06,-136.83 21.54 80
